Theta_e
335 338 341 342 344 346 347 347 353 356 362 363 362 363 367 369 370 359 359 364 358 356 355 355 363 363 365 367 367 367 368 362 359
328 335 339 341 344 346 348 350 355 359 362 365 366 363 368 369 368 367 360 368 369 360 367 357 361 362 365 366 366 368 367 361 359
327 332 338 340 342 345 347 350 354 358 363 365 365 362 365 364 367 369 369 369 369 369 368 366 362 363 363 365 366 368 367 362 361
328 332 336 340 342 344 347 349 350 354 358 362 362 363 365 366 366 365 367 365 369 370 370 372 367 367 364 363 365 367 366 364 360
328 331 334 337 339 343 345 347 349 350 353 355 358 362 366 366 368 367 365 367 368 370 371 371 371 370 366 363 364 366 365 362 359
326 329 332 334 336 338 343 346 352 349 350 352 355 360 359 362 365 365 366 368 368 369 370 371 369 370 369 366 364 364 364 363 361
323 326 330 332 334 337 340 346 353 356 351 351 352 354 356 361 365 366 366 368 369 370 371 371 371 371 372 370 366 364 362 362 364
321 324 328 332 335 336 339 343 353 356 353 356 354 359 358 360 365 367 368 368 369 370 370 370 371 371 371 369 367 359 366 365 363
320 321 324 328 334 338 341 345 348 351 354 355 357 359 358 362 365 367 368 368 369 370 369 370 371 369 369 368 362 343 340 358 363
321 323 324 326 332 337 341 342 347 349 355 355 357 359 361 363 365 366 367 367 368 369 369 369 369 369 369 368 368 334 333 340 363
322 323 325 327 328 331 339 342 340 349 350 357 358 359 361 363 364 365 367 368 367 368 368 368 368 367 368 367 367 332 329 336 360
324 326 327 329 329 329 332 334 339 345 350 351 354 359 360 362 364 364 366 365 366 365 365 363 363 364 365 367 368 328 324 334 356
325 326 327 327 329 330 331 334 337 341 348 353 356 358 360 362 364 366 365 365 365 364 363 361 359 362 364 351 364 333 321 330 353
332 332 331 332 332 332 338 339 343 346 348 350 357 356 357 361 364 368 365 367 367 366 364 364 363 359 360 363 361 360 319 319 351
335 335 333 329 333 334 338 346 347 355 355 358 360 359 356 360 364 360 358 367 366 366 366 364 362 356 353 357 359 337 323 318 322
337 338 334 336 338 338 346 349 351 351 362 363 358 358 360 361 364 362 365 363 363 359 361 356 356 355 351 352 356 356 325 319 316
340 337 342 346 344 346 349 353 354 355 358 360 359 357 359 361 361 360 361 359 360 357 356 355 354 353 352 350 350 349 352 333 325
341 340 347 349 350 350 354 354 356 356 357 358 356 357 358 359 359 359 360 360 349 357 362 342 353 354 354 353 353 354 336 334 337
344 345 347 351 352 349 350 348 348 359 361 358 357 356 354 353 355 357 357 354 341 306 305 301 300 309 329 353 312 308 307 306 308
332 338 341 345 346 348 348 349 350 345 352 358 356 353 350 349 345 351 351 351 341 336 323 304 300 300 299 302 305 303 303 302 303
Wind_Speed
19 21 21 23 26 24 24 25 24 23 20 20 22 22 20 18 19 15 14 14 13 11 11 10 10 12 13 13 11 10 9 8 8
18 21 23 25 26 26 25 24 23 23 22 22 22 24 19 19 19 19 16 16 14 13 11 10 12 14 15 14 12 12 11 9 9
20 21 22 23 23 25 24 26 25 25 24 24 24 22 20 18 19 19 18 15 16 15 13 14 12 14 15 14 13 13 13 10 11
20 20 20 21 22 23 24 22 23 24 25 24 23 22 21 20 19 21 19 18 17 17 15 14 15 14 15 15 14 14 14 12 12
19 19 18 19 20 20 21 23 23 25 25 25 25 21 21 22 20 20 20 19 19 18 17 16 16 15 16 16 16 15 15 16 14
14 14 13 14 15 17 19 20 20 23 24 26 24 22 23 21 21 21 21 21 20 20 19 19 19 18 18 17 17 17 17 17 17
8 9 12 13 14 15 16 18 17 20 22 22 22 23 23 22 22 23 21 20 20 20 19 19 19 19 18 18 18 18 19 18 17
1 4 8 11 13 15 16 16 16 19 21 19 20 20 21 21 21 20 18 19 20 19 19 19 19 19 19 19 18 17 19 19 18
14 14 7 9 12 13 15 15 17 17 19 20 19 19 22 20 19 19 20 19 20 19 20 20 19 20 20 21 17 21 21 20 18
14 15 15 11 11 13 13 13 14 18 18 17 19 20 18 19 18 19 19 18 17 18 19 18 20 21 21 21 21 19 23 24 19
19 20 17 15 14 12 13 14 14 14 15 17 18 19 19 18 19 19 17 18 21 20 18 19 18 18 18 18 17 16 20 24 22
19 21 19 17 15 14 13 11 13 13 16 18 19 19 20 20 19 18 18 21 20 15 15 16 16 15 16 17 17 13 15 17 20
16 18 17 18 19 17 16 15 13 14 17 17 19 21 21 17 17 18 19 17 15 13 15 15 13 14 15 15 16 10 12 15 15
18 16 18 16 16 15 15 11 11 13 15 19 19 15 17 16 16 15 14 14 14 14 15 14 16 17 18 18 15 16 22 24 20
20 20 19 20 15 13 11 10 11 13 15 14 12 13 15 14 14 13 14 15 14 15 15 16 16 16 16 12 17 21 24 23 26
20 18 16 12 10 9 9 9 11 12 11 11 12 13 13 13 14 14 12 15 14 13 15 14 15 16 13 10 10 11 21 19 24
17 15 12 9 8 9 8 6 9 10 11 12 13 13 13 12 13 14 14 12 12 12 13 13 13 14 15 15 13 12 9 7 11
16 12 8 9 6 7 5 4 6 9 11 13 13 13 12 13 12 13 12 8 2 10 12 5 12 13 13 12 13 10 10 14 11
7 5 6 4 5 6 6 7 6 4 6 9 9 10 9 8 7 9 8 8 5 14 13 12 12 9 7 6 9 10 14 13 16
6 5 6 8 7 8 8 8 10 8 6 6 7 6 7 6 5 6 7 7 5 5 6 14 18 16 16 10 10 15 16 13 15
Wind_Direction
197 200 202 202 198 200 203 203 200 202 196 200 203 205 208 207 210 215 216 214 229 218 227 214 211 201 210 214 206 210 199 201 218
206 196 198 204 203 201 199 201 203 199 199 199 201 202 203 206 208 215 216 221 207 226 221 222 208 207 209 211 209 207 197 219 205
205 198 199 203 206 206 204 201 201 199 201 200 201 204 204 207 208 210 215 211 216 215 218 218 210 207 209 210 208 204 202 203 202
202 197 196 201 204 207 208 206 202 202 201 202 201 202 203 206 207 208 210 214 211 213 213 206 213 203 210 210 207 204 204 216 209
211 206 202 202 203 204 204 205 208 204 205 205 206 204 202 203 204 206 208 210 210 207 211 207 204 206 206 208 209 205 208 211 210
216 219 226 221 211 203 206 207 208 212 206 210 207 204 204 206 207 205 206 206 208 206 204 206 206 204 204 205 208 207 210 215 216
218 211 227 232 232 218 213 210 207 208 212 211 209 204 208 208 207 207 206 206 206 207 205 204 204 204 203 204 205 208 213 213 217
352 213 230 225 226 223 217 212 211 207 212 209 210 203 208 208 211 210 206 207 207 208 207 206 207 204 203 205 208 209 211 213 214
286 275 254 247 235 228 217 212 212 211 210 209 205 205 208 209 207 206 207 207 208 207 208 207 207 209 207 206 209 207 197 210 214
294 286 276 258 240 233 234 229 217 215 208 201 203 211 206 207 207 206 207 207 210 213 212 210 211 211 210 212 215 198 192 196 217
269 274 274 263 252 232 223 233 241 215 208 203 204 204 206 205 205 207 202 204 209 210 207 212 216 218 219 220 221 200 195 194 214
263 260 264 263 266 270 276 261 242 233 207 202 204 206 208 205 203 201 201 208 211 209 212 215 220 223 225 228 235 199 200 195 215
272 263 267 275 276 273 259 248 246 213 209 205 204 206 208 202 202 203 206 206 206 206 210 214 212 215 222 230 238 213 191 202 234
293 297 302 288 278 267 263 244 221 216 207 212 213 207 206 204 205 204 204 201 200 199 201 204 205 203 201 198 214 210 179 191 218
294 286 282 278 274 261 246 223 208 210 205 213 203 209 206 201 199 200 195 200 197 198 199 204 207 204 212 196 198 207 194 197 209
294 287 281 274 272 244 231 221 209 203 203 194 190 195 195 193 192 196 199 188 195 198 204 215 211 214 230 220 224 203 208 169 184
289 277 271 263 241 228 221 211 203 199 175 179 181 185 190 187 187 188 191 186 195 206 205 209 218 220 235 237 225 222 207 182 191
283 262 254 240 211 205 169 155 180 171 165 176 176 177 179 179 185 186 180 183 231 217 213 246 225 230 244 244 243 232 164 172 191
292 241 225 185 101 119 120 96 69 67 151 176 178 171 173 172 158 166 175 168 121 51 38 24 20 14 8 336 14 132 157 171 168
115 137 151 135 119 107 98 90 81 61 62 113 135 129 124 136 141 159 157 154 161 129 68 62 43 28 25 7 159 153 160 149 141